User: anonymous   Login
Location: Standeford and Andreas Observatories
(44.1397°N, 93.9969°W)
Time: 13:56:45
(UTC-06:00)
Language:

Cosmos 1500 Rocket - Orbit

View from above orbital plane
View from above orbital plane
View from above satellite
View from above satellite

Ground track
Ground track

The orbit data is extracted from the following two-line orbital elements,

1 14373U 83099B   17060.19624824  .00000102  00000-0  93899-5 0  9993
2 14373  82.5440 345.4698 0019157 219.8372 251.9137 14.83662863804868
Epoch (UTC): 01 March 2017 04:42:35
Eccentricity: 0.0019157
inclination: 82.5440°
perigee height: 604 km
apogee height: 631 km
right ascension of ascending node: 345.4698°
argument of perigee: 219.8372°
revolutions per day: 14.83662863
mean anomaly at epoch: 251.9137°
orbit number at epoch: 80486

The dashed part of the orbit path shows where the satellite is in the earth's shadow,  

DLR